SCP
0 0 0 0 0 0 0 0 0 0 0 0 0 1 1 1 1 1 1 1 1 1 1 1 1 1 1 2 2 2 2 2 2 2 2 2 2 2 1 1 1 1 1 1
0 0 0 0 0 0 0 0 0 0 0 0 0 1 1 1 1 1 1 1 1 1 1 1 1 1 1 1 2 2 2 2 2 2 2 2 1 1 1 1 1 1 1 1
0 0 0 0 0 0 0 0 0 0 0 0 0 1 1 1 1 0 0 0 1 0 1 1 1 1 1 1 1 1 1 2 1 1 1 1 1 1 1 1 1 1 0 0
0 0 0 0 0 0 0 0 0 0 0 0 0 1 1 1 0 0 0 0 0 0 0 0 0 0 0 1 1 1 1 1 1 1 1 1 1 1 1 1 1 0 0 0
0 0 0 0 0 0 0 0 0 0 0 0 0 0 0 0 0 0 0 0 0 0 0 0 0 0 0 0 0 1 1 1 1 1 1 1 1 1 1 0 0 0 0 0
0 0 0 0 0 0 0 0 0 0 0 0 0 0 0 0 0 0 0 0 0 0 0 0 0 0 0 0 0 1 1 1 1 1 1 1 1 1 0 0 0 0 0 0
0 0 0 0 0 0 0 0 0 0 0 0 0 0 0 0 0 0 0 0 0 0 0 0 0 0 0 0 0 1 1 1 1 1 1 1 1 1 0 0 0 0 0 0
0 0 0 0 0 0 0 0 0 0 0 0 0 0 0 0 0 0 0 0 0 0 0 0 0 0 0 0 0 0 1 1 1 1 1 1 1 1 0 0 0 0 0 0
0 0 0 0 0 0 0 0 0 0 0 0 0 0 0 0 0 0 0 0 0 0 0 0 0 0 0 0 0 0 1 1 1 1 1 1 1 1 0 0 0 0 0 0
0 0 0 0 0 0 0 0 0 0 0 0 0 0 0 0 0 0 0 0 0 0 0 0 0 0 0 0 0 0 1 1 1 1 1 1 1 1 1 0 0 0 0 0
0 0 0 0 0 0 0 0 0 0 0 0 0 0 0 0 0 0 0 0 0 0 0 0 0 0 0 0 0 0 0 0 1 1 0 0 0 1 1 0 0 0 0 0
0 0 0 0 0 0 0 0 0 0 0 0 0 0 0 0 0 0 0 0 0 0 0 0 0 0 0 0 0 0 0 0 0 0 0 0 0 0 0 0 0 0 0 0
0 0 0 0 0 0 0 0 -0 0 0 0 0 0 0 0 0 0 0 0 0 0 0 0 0 0 0 0 0 0 0 0 0 0 0 0 0 0 0 0 0 0 0 0
0 0 0 0 0 0 0 0 -0 -0 0 0 0 0 0 0 0 0 0 0 0 0 0 0 0 0 0 0 0 0 0 0 0 0 0 0 0 0 0 0 0 0 0 0
0 0 0 0 0 0 0 0 -0 0 0 0 0 0 0 0 0 0 0 0 0 0 0 0 0 0 0 0 0 0 0 0 0 0 0 0 0 0 0 0 0 0 0 0
0 0 0 0 0 0 0 0 0 0 0 0 0 0 0 0 0 0 0 0 0 0 0 0 0 0 0 0 0 0 0 0 0 0 0 0 0 0 0 0 0 0 0 0
0 0 0 0 0 0 0 0 0 0 0 0 0 0 0 0 0 0 0 0 0 0 0 0 0 0 0 0 0 0 0 0 0 0 0 0 0 0 0 0 0 0 0 0
0 0 0 0 0 0 0 0 0 0 0 0 0 0 0 0 0 0 0 0 0 0 0 0 0 0 0 0 0 0 0 0 0 0 0 0 0 0 0 0 0 0 0 0
0 0 0 0 0 0 0 0 0 0 0 0 0 0 0 0 0 0 0 0 0 0 0 0 0 0 0 0 0 0 0 0 0 0 0 0 0 0 0 0 0 0 0 0
0 0 0 0 0 0 0 0 0 0 0 0 0 0 0 0 0 0 0 0 0 0 0 0 0 0 0 0 0 0 0 0 0 0 0 0 0 0 0 0 0 0 0 0
0 0 0 0 0 0 0 0 0 0 0 0 0 0 0 0 0 0 0 0 0 0 0 0 0 0 0 0 0 0 0 0 0 0 0 0 0 0 0 0 0 0 0 0
0 0 0 0 0 0 0 0 0 0 0 0 0 0 0 0 0 0 0 0 0 0 0 0 0 0 0 0 0 0 0 0 0 0 0 0 0 0 0 0 0 0 0 0
0 0 0 0 0 0 0 0 0 0 0 0 0 0 0 0 0 0 0 0 0 0 0 0 0 0 0 0 0 0 0 0 0 0 0 0 0 0 0 0 0 0 0 0
0 0 0 0 0 0 0 0 0 0 0 0 0 0 0 0 0 0 0 0 0 0 0 0 0 0 0 0 0 0 0 0 0 0 0 0 0 0 0 0 0 0 0 0
0 0 0 0 0 0 0 0 0 0 0 0 0 0 0 0 0 0 0 0 0 0 0 0 0 0 0 0 0 0 0 0 0 0 0 0 0 0 0 0 0 0 0 0
0 0 0 0 0 0 0 0 0 0 0 0 0 0 0 0 0 0 0 0 0 0 0 0 0 0 0 0 0 0 0 0 0 0 0 0 0 0 0 0 0 0 0 0
Wind_Speed
12 11 12 12 10 11 10 9 4 3 5 3 3 6 7 8 9 9 10 9 9 8 8 7 7 7 7 7 6 5 5 4 3 2 2 2 2 2 2 1 2 3 3 3
11 12 14 11 9 10 10 9 7 4 3 5 5 4 6 7 8 7 8 8 8 8 7 6 6 5 6 5 4 4 4 4 3 2 2 1 2 2 2 1 1 2 3 3
9 8 9 9 9 10 9 8 7 6 8 7 5 3 5 6 7 7 7 7 7 7 6 6 5 4 4 4 3 3 3 3 3 3 2 2 2 2 2 2 1 1 2 2
6 8 8 7 8 10 7 9 11 10 10 7 6 4 5 6 5 3 5 7 6 6 6 5 4 4 3 2 3 2 2 2 2 2 3 4 4 4 3 2 2 2 2 3
6 7 7 5 6 10 8 7 10 12 11 8 7 5 2 6 4 6 6 6 6 5 5 4 3 2 1 1 1 1 2 1 1 2 3 4 4 4 4 4 4 4 3 3
13 10 8 6 7 8 9 9 8 8 8 7 4 2 2 6 9 8 6 6 5 4 3 2 1 1 0 2 1 0 0 0 2 3 4 4 5 6 6 6 6 5 4 3
13 14 13 8 6 5 9 8 5 6 2 6 6 1 3 7 8 6 6 5 4 3 2 2 2 1 1 2 2 2 2 2 3 4 4 5 5 6 7 8 6 5 4 3
3 9 8 7 5 4 7 7 4 6 6 3 5 1 2 6 7 7 5 3 2 3 3 3 3 3 4 4 3 4 3 3 3 4 5 5 6 6 5 6 6 6 5 5
6 6 6 5 5 6 7 8 10 9 7 2 7 5 1 2 4 5 4 4 5 5 4 5 6 6 6 6 5 4 4 4 4 5 6 6 6 6 6 7 7 6 6 7
4 5 3 3 4 4 8 10 8 7 8 6 6 5 2 2 5 6 6 7 7 7 7 7 6 6 5 5 5 5 5 5 5 5 6 8 6 6 7 7 7 7 7 8
8 6 7 7 8 10 8 9 8 8 8 8 5 5 4 5 5 6 8 8 9 10 10 10 9 9 8 8 8 7 7 6 6 6 6 7 7 7 7 6 7 7 7 7
9 6 7 12 14 10 6 7 8 7 8 7 5 6 4 5 6 8 9 10 11 10 10 10 10 10 10 9 9 9 8 8 8 7 7 7 7 7 7 8 8 8 8 8
9 5 3 5 9 9 3 5 7 7 6 7 7 5 4 8 10 10 10 11 10 10 10 10 9 9 10 10 10 10 9 10 10 9 9 9 8 8 8 9 8 8 9 8
5 4 4 2 2 3 1 4 6 7 7 8 9 9 9 11 11 11 11 11 11 10 10 10 9 8 9 9 9 10 10 10 10 10 10 9 9 9 10 10 9 9 9 9
5 6 7 6 4 5 5 5 6 7 8 8 10 10 11 11 11 11 12 12 11 11 12 11 10 9 9 9 9 9 10 10 10 10 11 9 9 10 10 10 10 10 9 11
2 7 10 8 6 7 4 2 4 7 8 9 10 9 12 12 11 11 11 10 10 12 13 13 12 11 11 10 10 10 10 10 10 11 11 10 10 11 10 11 10 10 9 10
4 5 9 8 6 8 3 2 4 7 8 8 9 9 12 12 12 12 10 10 11 13 13 13 13 11 10 10 9 10 11 11 11 11 12 11 11 12 11 13 12 11 10 10
4 7 6 9 7 5 2 3 5 6 8 7 8 10 11 11 11 8 10 11 11 12 13 13 12 12 11 11 10 11 12 11 11 11 12 12 12 13 12 12 12 11 10 10
3 4 7 7 8 3 5 4 4 5 6 8 8 9 11 11 11 5 12 11 11 12 12 11 12 12 11 11 12 12 13 13 13 12 12 13 13 13 13 13 12 10 10 10
5 5 7 8 10 9 4 5 3 3 2 8 9 9 10 11 9 9 12 12 12 11 11 11 12 12 11 11 11 12 13 13 13 13 13 13 13 13 13 13 11 10 9 9
7 8 8 8 9 3 6 3 3 5 5 7 8 8 9 8 8 9 11 11 11 11 11 12 12 11 10 10 10 12 13 13 14 14 13 13 13 12 12 10 9 9 9 9
5 5 5 5 7 3 4 4 5 4 4 5 7 8 8 8 9 10 10 11 11 12 12 12 11 10 9 10 11 13 13 13 14 14 14 14 13 12 11 10 9 9 8 8
3 2 3 4 3 2 3 3 5 3 2 4 6 6 7 8 9 10 10 10 11 11 11 11 12 11 10 10 10 13 13 13 14 14 14 13 13 11 10 10 10 8 7 6
1 3 2 3 2 1 0 2 3 2 1 3 4 5 6 8 9 9 9 9 10 10 11 11 12 12 12 11 11 11 11 12 13 14 14 12 11 11 10 7 7 7 6 5
6 4 5 5 4 4 3 2 2 2 1 2 3 5 6 7 8 8 8 8 9 9 10 10 10 11 12 11 11 12 11 12 13 14 13 12 10 9 9 8 6 6 4 3
8 5 4 3 1 2 1 3 3 2 1 1 3 4 5 6 7 8 8 8 8 9 10 10 11 12 12 11 11 11 11 12 13 12 11 9 9 8 7 7 7 5 5 5
Wind_Direction
227 233 251 259 259 274 290 285 269 188 195 212 189 146 133 124 111 113 114 112 105 97 93 84 75 71 73 68 67 64 63 56 42 32 355 341 343 340 333 320 345 328 305 299
241 236 255 275 282 280 276 280 289 291 238 225 185 155 116 102 100 103 110 117 122 121 113 103 98 87 84 83 78 80 64 49 29 24 330 298 301 284 270 298 329 313 308 300
248 266 275 279 277 270 273 289 287 270 262 253 197 131 96 100 95 113 125 125 125 125 120 117 109 99 91 85 72 62 60 53 27 357 333 336 321 305 311 317 296 306 310 302
245 247 256 274 289 293 290 306 296 282 271 263 241 187 141 116 110 160 151 136 129 121 121 113 106 98 87 87 93 97 90 68 24 345 338 326 311 306 305 306 310 313 291 286
284 282 277 266 276 283 288 278 294 306 307 302 12 29 109 116 157 204 171 138 123 118 111 101 92 85 63 49 92 109 97 71 345 316 309 309 312 316 318 318 305 296 281 265
313 311 297 286 275 285 298 290 305 353 355 342 328 44 208 184 190 187 159 134 122 112 97 84 80 112 289 295 289 64 122 274 282 290 301 304 309 310 308 301 293 286 275 263
331 323 316 304 303 337 315 311 329 355 21 255 255 197 212 159 159 148 124 117 113 112 85 45 341 303 295 304 340 339 324 303 296 296 297 300 303 301 289 282 285 289 291 291
255 274 283 300 321 317 303 314 315 299 275 206 172 187 10 76 103 102 101 100 86 60 44 10 334 336 334 337 345 331 324 311 302 296 294 291 286 283 285 295 308 302 292 286
222 238 244 283 319 344 327 329 323 308 316 63 126 120 125 47 50 51 52 50 36 24 5 352 349 349 348 344 341 325 315 312 303 297 293 280 273 280 288 290 286 284 283 287
300 319 329 328 334 5 337 345 348 343 343 349 93 99 104 50 17 8 13 22 21 9 357 356 353 352 351 345 341 338 331 322 312 305 298 302 302 294 283 281 277 275 277 280
344 336 347 4 2 353 1 6 360 349 355 338 23 86 95 57 23 8 13 17 13 5 356 354 356 359 354 347 340 338 334 329 324 317 311 306 301 295 293 288 285 283 280 276
354 351 21 12 339 333 8 17 8 357 345 333 3 98 67 60 45 26 14 13 10 358 353 353 353 353 347 342 339 337 335 328 324 320 313 305 301 302 302 300 297 296 291 284
352 348 17 13 322 302 347 25 14 352 329 347 4 75 59 50 31 19 11 5 354 353 356 354 357 351 344 341 338 333 329 326 324 323 317 313 311 308 302 297 294 290 287 286
293 306 318 301 234 265 337 22 26 11 0 350 6 360 31 32 15 7 4 357 349 353 359 355 356 349 346 340 336 330 327 327 324 321 318 315 313 308 303 299 294 288 285 283
316 316 319 323 330 343 5 7 10 14 1 347 349 357 35 22 8 2 355 348 345 353 353 352 350 345 340 337 332 328 327 327 325 322 319 314 312 308 304 300 296 291 287 285
355 321 314 315 317 314 306 355 359 359 352 345 339 4 27 11 2 353 346 346 355 353 349 347 344 341 338 333 330 331 328 329 327 321 316 312 309 307 305 302 298 294 289 286
313 307 310 311 294 293 327 39 5 354 351 345 349 12 9 356 353 345 351 12 0 351 347 344 342 336 333 332 334 332 329 327 322 318 315 315 313 312 309 307 304 299 295 291
299 314 300 296 292 306 91 72 39 360 341 355 17 11 359 353 345 356 37 20 358 351 346 342 336 333 333 335 335 332 326 323 319 318 317 317 315 313 309 303 298 297 295 289
204 284 296 303 310 321 131 89 41 356 345 34 17 358 353 346 326 35 33 12 1 353 345 338 334 333 335 335 337 330 324 324 321 321 321 318 315 310 307 303 300 298 294 290
187 221 264 292 306 313 90 101 45 308 99 32 7 358 348 344 334 349 4 2 358 350 343 338 337 336 336 337 335 329 326 325 324 323 319 316 313 309 306 301 301 298 292 288
220 227 250 283 291 356 86 83 326 324 37 7 358 351 349 357 336 338 351 357 352 345 341 342 341 337 335 335 335 328 325 325 325 321 317 315 312 308 302 304 304 300 296 293
265 279 282 285 298 42 48 19 29 44 15 347 350 350 352 342 338 346 352 351 346 342 342 342 337 335 334 336 335 329 326 326 323 319 316 314 312 311 313 311 307 304 300 297
270 332 340 358 6 111 63 62 83 77 351 348 348 348 345 340 342 348 349 346 341 340 340 338 335 332 334 337 337 329 326 325 323 319 317 315 313 314 311 309 309 308 305 304
325 87 312 301 296 215 250 116 106 86 21 347 343 347 351 343 343 347 345 340 340 338 337 337 334 332 333 337 336 329 324 326 324 320 318 316 315 318 317 313 310 311 315 317
316 277 275 263 265 264 228 148 123 111 69 337 350 352 348 343 341 343 338 339 338 333 335 335 333 330 333 337 334 333 333 330 325 322 320 317 317 316 315 314 311 311 316 310
283 279 272 295 17 279 324 131 143 153 221 329 340 333 339 343 338 338 337 337 335 333 333 334 334 334 335 335 335 336 336 333 327 323 322 320 318 317 316 316 317 299 283 272